[[{"header":{"parameterUnit":"m.s-1","parameterCategory":1,"la1":30.2991,"la2":30.254,"lo1":-89.0895,"lo2":-89.0444,"dy":0.0017,"dx":0.0017,"nx":28,"ny":28,"refTime":"2025-12-18T03:00:00:Z","depth":0,"parameterNumber":2,"parameterNumberName":"U-component_of_WINDS"},"data":[0,0,0,0,0,0,0,0,0,0,0,0,0,0,0,0,0,0,0,0,0,0,0,0,0,0,0,0,0,0,0,0,0,0,0,0,0,0,0,0,0,0,0,0,0,0,0,0,0,0,0,0,0,0,0,0,0,0,-0.0345,-0.0345,0,-0.0324,-0.0324,-0.0324,-0.0316,-0.0316,-0.0316,-0.0316,-0.0295,-0.0294,-0.0294,0,0,0,0,0,0,0,0,0,0,0,0,0,-0.0376,-0.0376,-0.0345,-0.0345,-0.0344,-0.0324,-0.0324,-0.0324,-0.0316,-0.0316,-0.0316,-0.0316,-0.0295,-0.0294,-0.0294,0,0,0,0,0,0,0,0,0,0,0,0,0,-0.036,-0.0376,-0.0345,-0.0338,-0.0337,-0.0324,-0.0324,-0.0324,-0.0316,-0.0316,-0.0316,-0.0316,-0.0295,-0.0294,-0.0294,-0.0286,0,0,-0.0291,-0.029,0,0,0,0,0,0,0,0,-0.0361,-0.0359,-0.0339,-0.0338,-0.0338,-0.0323,-0.0327,-0.0311,-0.0316,-0.0324,-0.0316,-0.0316,-0.0304,-0.0302,-0.0298,-0.0285,-0.0284,-0.0291,-0.029,-0.029,-0.0289,0,0,0,0,0,0,0,-0.0362,-0.036,-0.0337,-0.0339,-0.0338,-0.0336,-0.0333,-0.0324,-0.0314,-0.0323,-0.0323,-0.032,-0.0304,-0.0299,-0.0298,-0.0284,-0.0291,-0.029,-0.0289,-0.0289,-0.0262,-0.0262,0,0,0,0,0,0,-0.0364,-0.0361,-0.0337,-0.0336,-0.035,-0.0335,-0.0333,-0.0327,-0.0314,-0.0312,-0.032,-0.032,-0.0301,-0.0299,-0.0297,-0.0287,-0.029,-0.0289,-0.0288,-0.0262,-0.0262,-0.0262,0,0,0,0,0,0,-0.0365,-0.0362,-0.0338,-0.0348,-0.0345,-0.0334,-0.0329,-0.0327,-0.0323,-0.0312,-0.031,-0.0318,-0.0301,-0.0298,-0.0288,-0.0286,-0.0288,-0.0287,-0.0262,-0.0262,-0.0262,-0.0266,0,0,0,0,0,0,-0.0366,-0.0363,-0.036,-0.0348,-0.0344,-0.033,-0.0329,-0.0326,-0.0321,-0.0321,-0.0309,-0.0307,-0.0301,-0.029,-0.0288,-0.0285,-0.0287,-0.0262,-0.0262,-0.0262,-0.0266,-0.0266,-0.0266,0,0,0,0,0,-0.0367,-0.0362,-0.036,-0.0357,-0.0341,-0.033,-0.0328,-0.0321,-0.0321,-0.0318,-0.0311,-0.0307,-0.0286,-0.0289,-0.0286,-0.0283,-0.0263,-0.0262,-0.0262,-0.0266,-0.0266,-0.0266,0,0,0,0,0,0,-0.0374,-0.0361,-0.0358,-0.0349,-0.0341,-0.0329,-0.0325,-0.0321,-0.0313,-0.0313,-0.0304,-0.0302,-0.0292,-0.0287,-0.029,-0.0274,-0.0274,-0.0273,-0.0279,-0.0278,-0.0278,-0.028,-0.0286,0,0,0,0,0,-0.0375,-0.0368,-0.0356,-0.0349,-0.0345,-0.0336,-0.0331,-0.0326,-0.0317,-0.0314,-0.0306,-0.0297,-0.0289,-0.0283,-0.0275,-0.0265,-0.0262,-0.0262,-0.0262,-0.0262,-0.0261,-0.0255,-0.0254,-0.0261,-0.0261,-0.0261,0,0,-0.0376,-0.0367,-0.0363,-0.035,-0.0343,-0.0336,-0.0333,-0.0325,-0.0319,-0.0312,-0.0303,-0.0296,-0.0286,-0.0276,-0.0272,-0.0271,-0.0259,-0.0261,-0.0261,-0.0261,-0.0255,-0.0254,-0.0254,-0.026,-0.026,-0.026,0,0,-0.0374,-0.0367,-0.036,-0.0353,-0.0343,-0.0336,-0.0335,-0.0323,-0.0318,-0.0308,-0.0303,-0.0296,-0.0281,-0.0274,-0.0268,-0.0262,-0.0259,-0.026,-0.026,-0.0254,-0.0253,-0.0253,-0.025,-0.025,-0.0259,-0.0259,-0.0259,0,-0.0376,-0.0365,-0.0357,-0.0349,-0.0344,-0.0337,-0.033,-0.0323,-0.031,-0.0306,-0.0306,-0.0287,-0.028,-0.0268,-0.0266,-0.0262,-0.026,-0.0261,-0.0254,-0.0254,-0.0253,-0.0251,-0.025,-0.0259,-0.0259,-0.0259,-0.0259,0,-0.0368,-0.036,-0.0356,-0.0344,-0.0337,-0.033,-0.0321,-0.0315,-0.0311,-0.0304,-0.0294,-0.0284,-0.0274,-0.027,-0.0266,-0.0258,-0.0258,-0.0256,-0.0255,-0.0253,-0.025,-0.0249,-0.026,-0.026,-0.026,-0.0259,0,0,-0.0371,-0.0354,-0.0352,-0.0346,-0.0334,-0.0327,-0.0319,-0.0309,-0.0304,-0.0295,-0.0288,-0.0275,-0.0273,-0.0267,-0.0261,-0.0256,-0.0251,-0.0255,-0.0254,-0.0254,-0.0241,-0.0243,-0.0242,-0.0249,-0.0249,-0.0248,-0.0242,0,-0.0367,-0.0353,-0.0345,-0.0334,-0.0326,-0.0319,-0.0312,-0.0303,-0.0296,-0.0289,-0.0281,-0.0272,-0.027,-0.0266,-0.0261,-0.0253,-0.0249,-0.0253,-0.0242,-0.0241,-0.0245,-0.0241,-0.0242,-0.0237,-0.0241,-0.0241,-0.0241,0,-0.0361,-0.0352,-0.034,-0.0327,-0.0324,-0.0318,-0.0307,-0.03,-0.0289,-0.0285,-0.0277,-0.0272,-0.0262,-0.0262,-0.0249,-0.0252,-0.0247,-0.0242,-0.0242,-0.0241,-0.0241,-0.0239,-0.0235,-0.0234,-0.0239,-0.0239,-0.0239,0,-0.0364,-0.0349,-0.0339,-0.0334,-0.032,-0.0315,-0.0309,-0.0299,-0.0293,-0.0283,-0.0279,-0.0268,-0.0263,-0.0254,-0.0246,-0.0247,-0.0233,-0.0233,-0.0229,-0.0229,-0.0227,-0.0227,-0.0222,-0.0223,-0.0223,-0.0223,-0.0223,0,-0.036,-0.0353,-0.034,-0.0335,-0.0326,-0.0317,-0.0309,-0.0302,-0.0292,-0.0285,-0.0278,-0.0271,-0.026,-0.0252,-0.0245,-0.0235,-0.0232,-0.0228,-0.0227,-0.0229,-0.0229,-0.0225,-0.0226,-0.0223,-0.0223,-0.0223,-0.0223,0,-0.0362,-0.0353,-0.0343,-0.0329,-0.0326,-0.032,-0.0309,-0.0303,-0.0295,-0.0286,-0.0283,-0.0272,-0.0261,-0.0252,-0.0238,-0.0233,-0.0223,-0.0221,-0.0227,-0.0226,-0.0222,-0.0223,-0.0214,-0.0212,-0.0215,-0.0215,-0.0215,0,-0.0361,-0.0355,-0.0341,-0.0336,-0.0329,-0.0321,-0.0314,-0.0305,-0.0298,-0.0285,-0.0281,-0.027,-0.0261,-0.0244,-0.0234,-0.0223,-0.0221,-0.0219,-0.0219,-0.0222,-0.0221,-0.0221,-0.022,-0.0219,-0.0219,-0.0219,-0.0219,0,-0.0359,-0.0355,-0.0346,-0.0335,-0.0328,-0.0319,-0.031,-0.0306,-0.0294,-0.0287,-0.0276,-0.0269,-0.0255,-0.0244,-0.0232,-0.0225,-0.022,-0.0219,-0.0217,-0.022,-0.0223,-0.0221,-0.0227,-0.0219,-0.0219,-0.0219,-0.0219,-0.0219,-0.0359,-0.0354,-0.0343,-0.0333,-0.0325,-0.0316,-0.031,-0.0302,-0.0292,-0.028,-0.0275,-0.0264,-0.0253,-0.0236,-0.0229,-0.022,-0.0219,-0.0217,-0.0216,-0.0216,-0.0216,-0.0224,-0.0217,-0.0217,-0.0217,-0.0217,-0.0217,0,-0.0357,-0.035,-0.0341,-0.0328,-0.032,-0.0316,-0.0305,-0.0299,-0.0289,-0.0279,-0.027,-0.0257,-0.0246,-0.0235,-0.0224,-0.0218,-0.0216,-0.0216,-0.0216,-0.0214,-0.0218,-0.022,-0.0218,-0.0218,-0.0218,-0.0218,-0.0218,-0.0218,-0.0355,-0.0345,-0.034,-0.0325,-0.0318,-0.0307,-0.0301,-0.0293,-0.0285,-0.0271,-0.0262,-0.0255,-0.0244,-0.0231,-0.0221,-0.0218,-0.0214,-0.0214,-0.0211,-0.0214,-0.0214,-0.0214,-0.0217,-0.0214,-0.0214,-0.0208,-0.0208,-0.0208]},{"header":{"parameterUnit":"m.s-1","parameterCategory":1,"la1":30.2991,"la2":30.254,"lo1":-89.0895,"lo2":-89.0444,"dy":0.0017,"dx":0.0017,"nx":28,"ny":28,"refTime":"2025-12-18T03:00:00:Z","depth":0,"parameterNumber":3,"parameterNumberName":"V-component_of_WINDS"},"data":[0,0,0,0,0,0,0,0,0,0,0,0,0,0,0,0,0,0,0,0,0,0,0,0,0,0,0,0,0,0,0,0,0,0,0,0,0,0,0,0,0,0,0,0,0,0,0,0,0,0,0,0,0,0,0,0,0,0,-3.1824,-3.1825,0,-3.1905,-3.1906,-3.1907,-3.1913,-3.1912,-3.1911,-3.1911,-3.199,-3.1993,-3.1995,0,0,0,0,0,0,0,0,0,0,0,0,0,-3.1671,-3.1674,-3.1824,-3.1825,-3.1826,-3.1905,-3.1906,-3.1907,-3.1913,-3.1912,-3.1911,-3.191,-3.1989,-3.1992,-3.1996,0,0,0,0,0,0,0,0,0,0,0,0,0,-3.1744,-3.1675,-3.1824,-3.1839,-3.1841,-3.1905,-3.1906,-3.1908,-3.1914,-3.1912,-3.1911,-3.191,-3.1988,-3.1992,-3.1996,-3.205,0,0,-3.201,-3.2012,0,0,0,0,0,0,0,0,-3.1739,-3.1749,-3.1835,-3.1838,-3.184,-3.1898,-3.1882,-3.1955,-3.1914,-3.1886,-3.1911,-3.1909,-3.196,-3.1967,-3.1985,-3.2054,-3.2057,-3.201,-3.2013,-3.2015,-3.2016,0,0,0,0,0,0,0,-3.1734,-3.1746,-3.1856,-3.1837,-3.184,-3.184,-3.1849,-3.1896,-3.1929,-3.1888,-3.1889,-3.1899,-3.1961,-3.198,-3.1986,-3.2058,-3.201,-3.2014,-3.2017,-3.2018,-3.2178,-3.218,0,0,0,0,0,0,-3.1727,-3.1741,-3.1853,-3.1858,-3.1786,-3.1844,-3.1854,-3.1881,-3.1929,-3.1935,-3.19,-3.1899,-3.1973,-3.1981,-3.1989,-3.2058,-3.2015,-3.2019,-3.2021,-3.2177,-3.2179,-3.2181,0,0,0,0,0,0,-3.1724,-3.1737,-3.185,-3.18,-3.1815,-3.1848,-3.1878,-3.1883,-3.1902,-3.1938,-3.1943,-3.1913,-3.1973,-3.1983,-3.2036,-3.2061,-3.2021,-3.2025,-3.2175,-3.2177,-3.218,-3.2194,0,0,0,0,0,0,-3.1719,-3.1736,-3.1757,-3.1801,-3.1817,-3.1896,-3.188,-3.1885,-3.191,-3.191,-3.1952,-3.1958,-3.1973,-3.2029,-3.204,-3.2066,-3.2028,-3.2173,-3.2176,-3.2179,-3.2191,-3.2196,-3.2201,0,0,0,0,0,-3.1714,-3.1756,-3.1758,-3.1771,-3.1845,-3.1897,-3.1907,-3.1924,-3.1912,-3.1934,-3.1957,-3.1956,-3.2056,-3.2035,-3.2047,-3.2074,-3.2171,-3.2175,-3.2179,-3.2189,-3.2195,-3.22,0,0,0,0,0,0,-3.1712,-3.1762,-3.1765,-3.1822,-3.1856,-3.1898,-3.1926,-3.193,-3.1966,-3.1964,-3.1983,-3.1992,-3.2045,-3.2065,-3.204,-3.213,-3.2112,-3.2118,-3.2116,-3.2122,-3.2127,-3.2121,-3.2032,0,0,0,0,0,-3.1718,-3.1758,-3.1799,-3.1846,-3.1863,-3.1892,-3.1915,-3.1926,-3.1961,-3.1975,-3.2001,-3.2034,-3.2073,-3.2098,-3.2136,-3.2194,-3.2204,-3.2219,-3.2223,-3.2227,-3.2233,-3.2267,-3.2275,-3.2192,-3.2192,-3.2192,0,0,-3.1731,-3.1764,-3.1787,-3.1846,-3.1874,-3.1914,-3.1903,-3.1946,-3.1976,-3.1981,-3.2033,-3.2054,-3.2092,-3.2148,-3.2174,-3.2166,-3.2258,-3.2232,-3.2234,-3.2238,-3.2272,-3.228,-3.2287,-3.2195,-3.2194,-3.2194,0,0,-3.1777,-3.1805,-3.1849,-3.1877,-3.192,-3.1939,-3.1949,-3.1992,-3.2007,-3.206,-3.2066,-3.2101,-3.2167,-3.2195,-3.2218,-3.2277,-3.2279,-3.2289,-3.2314,-3.2347,-3.2354,-3.236,-3.2383,-3.2391,-3.2294,-3.2294,-3.2294,0,-3.1788,-3.185,-3.187,-3.1914,-3.1941,-3.1949,-3.1994,-3.2019,-3.2071,-3.2089,-3.2079,-3.2165,-3.2191,-3.2255,-3.227,-3.2287,-3.2301,-3.2284,-3.2351,-3.2357,-3.2363,-3.2386,-3.2394,-3.2295,-3.2295,-3.2295,-3.2295,0,-3.1863,-3.1906,-3.1936,-3.1989,-3.2019,-3.2062,-3.2089,-3.2116,-3.2125,-3.2145,-3.2201,-3.2232,-3.2278,-3.2294,-3.2301,-3.236,-3.2354,-3.2348,-3.233,-3.2372,-3.2394,-3.2402,-3.2296,-3.2296,-3.2296,-3.2295,0,0,-3.1908,-3.1974,-3.1985,-3.201,-3.2059,-3.2093,-3.2137,-3.2184,-3.2208,-3.2244,-3.2282,-3.2339,-3.2335,-3.2361,-3.2372,-3.2401,-3.2449,-3.2392,-3.2393,-3.2403,-3.2518,-3.2524,-3.2534,-3.245,-3.2452,-3.2453,-3.2516,0,-3.1961,-3.2043,-3.2063,-3.2133,-3.2174,-3.2184,-3.2223,-3.2257,-3.2277,-3.2315,-3.2336,-3.2378,-3.2368,-3.2384,-3.2413,-3.2437,-3.2473,-3.2433,-3.2487,-3.2489,-3.2479,-3.2545,-3.255,-3.2608,-3.2524,-3.2525,-3.2527,0,-3.2033,-3.2074,-3.2149,-3.2195,-3.2213,-3.2248,-3.2294,-3.233,-3.2369,-3.2382,-3.2412,-3.2421,-3.2468,-3.2448,-3.2514,-3.2486,-3.2509,-3.2525,-3.2527,-3.2534,-3.2511,-3.2555,-3.2626,-3.2636,-3.2539,-3.2538,-3.2537,0,-3.2062,-3.2135,-3.219,-3.2211,-3.2266,-3.2291,-3.2314,-3.2352,-3.238,-3.2419,-3.2438,-3.2481,-3.2506,-3.2539,-3.256,-3.2543,-3.2625,-3.2605,-3.2638,-3.2637,-3.2655,-3.2654,-3.2733,-3.2667,-3.2667,-3.2667,-3.2667,0,-3.2119,-3.2165,-3.2204,-3.2238,-3.229,-3.2313,-3.2363,-3.2387,-3.2421,-3.246,-3.2469,-3.2505,-3.253,-3.2569,-3.2585,-3.2638,-3.2648,-3.2661,-3.2665,-3.2661,-3.266,-3.2677,-3.2675,-3.2669,-3.2669,-3.2668,-3.2668,0,-3.216,-3.2188,-3.2249,-3.2297,-3.2311,-3.2347,-3.2388,-3.2421,-3.2443,-3.2492,-3.2504,-3.2538,-3.2585,-3.2609,-3.2666,-3.2677,-3.2738,-3.2739,-3.2726,-3.2728,-3.276,-3.2757,-3.2854,-3.2869,-3.2791,-3.2792,-3.2793,0,-3.2196,-3.2232,-3.2285,-3.2313,-3.2339,-3.2382,-3.2412,-3.2435,-3.2466,-3.2515,-3.2542,-3.2591,-3.263,-3.2705,-3.2734,-3.2779,-3.2781,-3.2813,-3.2788,-3.2784,-3.2785,-3.2783,-3.2788,-3.2817,-3.2818,-3.2818,-3.2819,0,-3.2258,-3.2271,-3.2313,-3.2362,-3.2398,-3.2437,-3.2475,-3.2497,-3.2527,-3.256,-3.261,-3.2641,-3.2702,-3.275,-3.2797,-3.2821,-3.2826,-3.2827,-3.2837,-3.2834,-3.2826,-3.2834,-3.274,-3.2824,-3.2824,-3.2823,-3.2823,-3.2823,-3.2299,-3.2333,-3.2377,-3.2425,-3.2457,-3.2493,-3.2528,-3.2555,-3.2598,-3.2651,-3.2662,-3.2715,-3.2755,-3.2819,-3.2845,-3.2886,-3.288,-3.2894,-3.2898,-3.2901,-3.2904,-3.2819,-3.2894,-3.2894,-3.2894,-3.2894,-3.2894,0,-3.2363,-3.2392,-3.2437,-3.2492,-3.253,-3.2533,-3.2576,-3.2608,-3.2655,-3.2693,-3.2733,-3.2791,-3.2839,-3.2872,-3.292,-3.2947,-3.2951,-3.2959,-3.2958,-3.2964,-3.2906,-3.2894,-3.2956,-3.2956,-3.2956,-3.2956,-3.2956,-3.2956,-3.2401,-3.2459,-3.2478,-3.2553,-3.2581,-3.2635,-3.266,-3.2694,-3.2725,-3.279,-3.2831,-3.2853,-3.289,-3.2941,-3.2985,-3.2993,-3.3011,-3.302,-3.3029,-3.2974,-3.2968,-3.2962,-3.295,-3.3024,-3.3024,-3.3084,-3.3085,-3.3085]}]]